Weather History for Millville, NJ

Change the Weather History Date:

Sunday, May 6, 2012

  Actual Average Record
Temperature  
Mean Temperature 57 °F -  
Max Temperature 66 °F 70 °F 90 °F (1986)
Min Temperature 46 °F 49 °F 38 °F (1954)
Degree Days  
Heating Degree Days 8    
Growing Degree Days 7 (Base 50)    
Moisture  
Dew Point 51 °F    
Average Humidity 80    
Maximum Humidity 96    
Minimum Humidity 59    
Precipitation  
Precipitation 0.00 in - - ()
Sea Level Pressure  
Sea Level Pressure 30.06 in    
Wind  
Wind Speed 7 mph (East)    
Max Wind Speed 10 mph    
Max Gust Speed -    
Visibility 10 miles    
Events      
Averages and records for this station are not official NWS values.
T = Trace of Precipitation, MM = Missing Value Source: NWS Daily Summary

Daily Weather History Graph

Daily Weather History Graph

Search for Another Location

Airport:

Trip Planner

Search our weather history database for the weather conditions in past years. The results will help you decide how hot, cold, wet, or windy it might be!

Date:

Astronomy

May. 06, 2012 Rise Set
Actual Time 5:55 AM EDT 7:59 PM EDT
Civil Twilight 5:25 AM EDT 8:28 PM EDT
Nautical Twilight 4:49 AM EDT 9:04 PM EDT
Astronomical Twilight 4:10 AM EDT 9:44 PM EDT
Moon 9:01 PM EDT (5/6) 6:03 AM EDT (5/6)
Length of Visible Light 15h 02m
Length of Day
14h 03m
Full, 100% of the Moon is Illuminated
May 6
Full
May 12
Last Quarter
May 20
New
May 28
First Quarter
Jun 4
Full

Hourly Weather History & Observations

Time (EDT) Temp. Dew Point Humidity Pressure Visibility Wind Dir Wind Speed Gust Speed Precip Events Conditions
12:16 AM 57.2 °F 53.6 °F 88% 30.03 in 10.0 mi NE 6.9 mph - N/A   Overcast
12:26 AM 57.2 °F 53.6 °F 88% 30.04 in 10.0 mi ENE 8.1 mph - N/A   Overcast
12:41 AM 57.2 °F 53.6 °F 88% 30.04 in 10.0 mi NE 9.2 mph - N/A   Overcast
12:54 AM 57.0 °F 54.0 °F 89% 30.04 in 10.0 mi ENE 5.8 mph - N/A   Overcast
1:03 AM 57.2 °F 53.6 °F 88% 30.03 in 10.0 mi East 8.1 mph - N/A   Overcast
1:54 AM 55.9 °F 53.1 °F 90% 30.02 in 10.0 mi ENE 9.2 mph - N/A   Overcast
2:54 AM 55.9 °F 53.1 °F 90% 30.01 in 10.0 mi ENE 6.9 mph - N/A   Overcast
3:24 AM 55.4 °F 53.6 °F 94% 30.01 in 10.0 mi ENE 5.8 mph - N/A   Overcast
3:54 AM 55.9 °F 52.0 °F 87% 30.01 in 10.0 mi ENE 6.9 mph - N/A   Overcast
4:42 AM 55.4 °F 51.8 °F 88% 30.01 in 10.0 mi ENE 5.8 mph - N/A   Overcast
4:54 AM 55.0 °F 52.0 °F 89% 30.01 in 10.0 mi ENE 6.9 mph - N/A   Overcast
5:54 AM 55.0 °F 52.0 °F 89% 30.02 in 10.0 mi ENE 6.9 mph - N/A   Overcast
6:50 AM 55.4 °F 51.8 °F 88% 30.04 in 10.0 mi ENE 5.8 mph - N/A   Overcast
6:54 AM 55.0 °F 52.0 °F 89% 30.04 in 10.0 mi ENE 6.9 mph - N/A   Overcast
7:29 AM 55.4 °F 51.8 °F 88% 30.06 in 10.0 mi NE 6.9 mph - N/A   Overcast
7:54 AM 55.9 °F 51.1 °F 84% 30.06 in 10.0 mi ENE 5.8 mph - N/A   Overcast
8:54 AM 59.0 °F 51.1 °F 75% 30.07 in 10.0 mi ENE 10.4 mph - N/A   Mostly Cloudy
9:33 AM 60.8 °F 51.8 °F 72% 30.08 in 10.0 mi East 6.9 mph - N/A   Overcast
9:54 AM 61.0 °F 52.0 °F 72% 30.08 in 10.0 mi East 9.2 mph - N/A   Overcast
10:54 AM 61.0 °F 52.0 °F 72% 30.10 in 10.0 mi East 4.6 mph - N/A   Overcast
11:54 AM 62.1 °F 52.0 °F 70% 30.09 in 10.0 mi East 5.8 mph - N/A   Overcast
12:54 PM 62.1 °F 52.0 °F 70% 30.09 in 10.0 mi ENE 4.6 mph - N/A   Overcast
1:54 PM 63.0 °F 52.0 °F 67% 30.09 in 10.0 mi ENE 8.1 mph - N/A   Overcast
2:54 PM 64.0 °F 52.0 °F 65% 30.07 in 10.0 mi East 6.9 mph - N/A   Overcast
3:18 PM 64.4 °F 51.8 °F 64% 30.07 in 10.0 mi Calm Calm - N/A   Overcast
3:54 PM 66.0 °F 51.1 °F 59% 30.06 in 10.0 mi SSE 6.9 mph - N/A   Overcast
4:54 PM 64.0 °F 50.0 °F 60% 30.06 in 10.0 mi ESE 9.2 mph - N/A   Overcast
5:54 PM 63.0 °F 48.9 °F 60% 30.07 in 10.0 mi SE 10.4 mph - N/A   Mostly Cloudy
6:54 PM 60.1 °F 48.9 °F 67% 30.08 in 10.0 mi SE 9.2 mph - N/A   Scattered Clouds
7:54 PM 55.0 °F 48.0 °F 77% 30.10 in 10.0 mi SE 6.9 mph - N/A   Clear
8:54 PM 52.0 °F 48.0 °F 86% 30.09 in 10.0 mi SE 6.9 mph - N/A   Clear
9:54 PM 51.1 °F 48.0 °F 89% 30.11 in 10.0 mi ESE 5.8 mph - N/A   Clear
10:54 PM 48.0 °F 46.0 °F 93% 30.10 in 10.0 mi Calm Calm - N/A   Clear
11:54 PM 46.0 °F 45.0 °F 96% 30.10 in 10.0 mi Calm Calm - N/A   Clear